FW0705 Weather Reports


Display with metric or nautical units.
time (UTC)temp
F
wind
direction
speed
MPH
gust
MPH
rain 1hr
in
rain 24hr
in
rain mn
in
humidity
%
barometer
mb
20260508063410 47 230 0.0 0.0 0.00 0.00 0.00 90 1015.6
20260508060409 47 230 0.0 0.0 0.00 0.00 0.00 91 1015.4
20260508054801 46 230 0.0 0.0 0.00 0.00 0.00 92 1015.3
20260508050406 44 230 0.0 0.0 0.00 0.00 0.00 92 1015.2
20260508043406 44 230 0.0 0.0 0.00 0.00 0.00 91 1015.1
20260508040404 43 230 0.0 2.0 0.00 0.00 0.00 91 1015.1
20260508033404 43 230 0.0 2.0 0.00 0.00 0.00 90 1015.0
20260508030407 44 230 0.0 1.0 0.00 0.00 0.00 89 1015.0
20260508023407 44 230 0.0 2.0 0.00 0.00 0.00 88 1015.0
20260508021754 45 230 0.0 3.0 0.00 0.00 0.00 86 1014.9
20260508014751 46 231 0.0 3.0 0.00 0.00 0.00 86 1014.8
20260508010404 46 230 0.0 2.0 0.00 0.00 0.00 85 1014.9
20260508003404 48 230 1.0 2.0 0.00 0.00 0.00 83 1014.9
20260508000405 49 230 0.0 3.0 0.00 0.00 0.00 81 1015.0
20260507234734 49 234 0.0 1.0 0.00 0.00 0.00 81 1015.0
20260507230402 50 234 0.0 3.0 0.00 0.00 0.00 80 1014.9
20260507223402 50 204 0.0 3.0 0.00 0.00 0.00 81 1014.9
20260507221738 50 204 0.0 1.0 0.00 0.00 0.00 80 1014.8
20260507214741 50 204 1.0 2.0 0.00 0.00 0.00 80 1014.9
20260507210402 51 204 0.0 2.0 0.00 0.00 0.00 79 1014.7
20260507203404 52 204 0.0 2.0 0.00 0.00 0.00 76 1014.6
20260507201744 53 205 1.0 4.0 0.00 0.00 0.00 71 1014.5
20260507193401 53 193 0.0 4.0 0.00 0.00 0.00 69 1014.2
20260507190400 54 191 1.0 6.0 0.00 0.00 0.00 67 1014.0
20260507184750 55 144 1.0 5.0 0.00 0.00 0.00 65 1013.9
20260507180359 55 136 1.0 6.0 0.00 0.00 0.00 62 1013.7
20260507173401 56 148 1.0 6.0 0.00 0.00 0.00 60 1013.7
20260507171751 57 190 2.0 6.0 0.00 0.00 0.00 58 1013.7
20260507163356 58 157 3.0 9.0 0.00 0.00 0.00 58 1013.6
20260507160357 57 139 2.0 9.0 0.00 0.00 0.00 56 1013.7
20260507153352 57 78 2.0 7.0 0.00 0.00 0.00 59 1013.8
20260507150352 57 148 2.0 8.0 0.00 0.00 0.00 59 1014.0
20260507143351 56 200 2.0 9.0 0.00 0.00 0.00 60 1014.2
20260507133352 57 226 1.0 7.0 0.00 0.00 0.00 60 1014.5
20260507130351 56 109 2.0 10.0 0.00 0.00 0.00 61 1014.6
20260507123352 56 113 2.0 8.0 0.00 0.00 0.00 63 1014.7
20260507120351 55 186 3.0 9.0 0.00 0.00 0.00 65 1014.9
20260507113351 54 124 3.0 8.0 0.00 0.00 0.00 67 1015.0
20260507110404 53 192 2.0 8.0 0.00 0.00 0.00 68 1015.1
20260507103351 52 88 2.0 8.0 0.00 0.00 0.00 71 1015.3
20260507101726 50 132 2.0 6.0 0.00 0.00 0.00 78 1015.2
20260507093348 49 209 2.0 7.0 0.00 0.00 0.00 82 1015.2
20260507090347 47 106 2.0 9.0 0.00 0.00 0.00 84 1015.2
20260507083347 46 76 1.0 7.0 0.00 0.00 0.00 86 1015.2
20260507080346 45 127 2.0 7.0 0.00 0.00 0.00 87 1015.3
20260507073345 44 106 2.0 7.0 0.00 0.00 0.00 89 1015.3